Regional Weather Roundup
Issued by NWS

Home | Current Version | Previous Version | Text Only | Print | Product List | Glossary On
Versions: 1 2 3 4 5 6 7 8 9 10 11 12 13 14 15 16 17 18 19 20 21 22 23 24 25 26 27 28 29 30 31 32 33 34 35 36 37 38 39 40 41 42 43 44 45 46 47 48 49 50
000
ASUS43 KMKX 260410
RWRWI

WISCONSIN REGIONAL WEATHER ROUNDUP
NATIONAL WEATHER SERVICE MILWAUKEE/SULLIVAN WI
1100 PM CDT THU MAY 25 2017

NOTE: "FAIR" INDICATES FEW OR NO CLOUDS BELOW 12,000 FEET WITH NO
SIGNIFICANT WEATHER AND/OR OBSTRUCTIONS TO VISIBILITY.

WIZ001-002-006>008-014>016-023>028-260500-
NORTHWEST WISCONSIN

CITY           SKY/WX    TMP DP  RH WIND       PRES   REMARKS
SUPERIOR ARPT  NOT AVBL
ASHLAND        PTCLDY    47  43  86 N5        29.73S
HAYWARD        CLOUDY    59  49  69 N3        29.72R
SIREN          CLOUDY    58  53  82 CALM      29.71R
CUMBERLAND     CLOUDY    55  52  88 CALM      29.72R
RICE LAKE      CLOUDY    59  53  80 CALM      29.73R
CHETEK         CLOUDY    57  55  94 SE3       29.72R
LADYSMITH      CLOUDY    59  55  84 CALM      29.74S
EAU CLAIRE     CLOUDY    58  51  78 CALM      29.70F
MENOMONIE      PTCLDY    60  55  84 E3        29.71S
NEW RICHMOND   CLOUDY    60  51  73 S5        29.71R
OSCEOLA        LGT RAIN  61  53  74 CALM      29.73R
$$

WIZ003>005-009-010-017-018-260500-
NORTH CENTRAL WISCONSIN

CITY           SKY/WX    TMP DP  RH WIND       PRES   REMARKS
MANITOWISH WTR MOCLDY    60  49  66 E5        29.75R
ARBOR VITAE    CLOUDY    60  50  71 SE5       29.76R
WOODRUFF       CLOUDY    60  50  71 SE5       29.76R
RHINELANDER    CLOUDY    60  51  72 E5        29.77R
EAGLE RIVER    CLOUDY    58  44  58 E7        29.78R
LAND O LAKES   CLEAR     56  46  67 E5        29.79R
PHILLIPS       CLOUDY    54  52  92 CALM      29.73S
TOMAHAWK       CLOUDY    54  50  87 CALM      29.76R
MEDFORD        PTCLDY    56  51  81 SE3       29.74S
MERRILL        CLOUDY    55  54  96 CALM      29.75S
$$

WIZ029-030-035-036-043>047-260500-
CENTRAL WISCONSIN

CITY           SKY/WX    TMP DP  RH WIND       PRES   REMARKS
WAUSAU         CLOUDY    61  52  72 S6        29.74R
MOSINEE        CLOUDY    59  52  77 SE5       29.77R
MARSHFIELD     CLOUDY    59  50  72 CALM      29.74R
STEVENS POINT  CLOUDY    58  49  71 CALM      29.76R
WAUPACA        CLOUDY    58  53  83 CALM      29.76R
WAUTOMA        MOCLDY    56  53  90 CALM      29.77
WISC RAPIDS    CLOUDY    57  51  80 SE5       29.76R
CAMP DOUGLAS   CLOUDY    55  53  95 E5        29.73S
$$

WIZ011>013-019>022-031-037>040-048>050-260500-
NORTHEAST WISCONSIN

CITY           SKY/WX    TMP DP  RH WIND       PRES   REMARKS
ANTIGO         CLOUDY    57  53  86 SE6       29.78R
SHAWANO        MOCLDY    58  52  79 E7        29.78R
OCONTO         CLEAR     50  50  98 CALM      29.78R
STURGEON BAY   CLEAR     54  51  90 CALM      29.78R
GREEN BAY      CLEAR     57  53  86 E6        29.78R
MANITOWOC      CLEAR     53  50  89 VRB5      29.78R
APPLETON       PTCLDY    57  50  77 CALM      29.76R
CLINTONVILLE   CLOUDY    57  50  77 E5        29.77R
OSHKOSH        CLEAR     55  52  89 SE3       29.76R
$$

WIZ032>034-041-042-053>061-260500-
SOUTHWEST WISCONSIN

CITY           SKY/WX    TMP DP  RH WIND       PRES   REMARKS
LA CROSSE      CLOUDY    62  57  83 SE5       29.71S
SPARTA         PTCLDY    52  52  98 CALM      29.74S
VIROQUA        CLOUDY    61  52  71 MISG      29.74F
BOSCOBEL       MOCLDY    56  54  93 CALM      29.73F
PRAIRIE DU CHI MOCLDY    61  52  73 CALM      29.72S
PLATTEVILLE    MOCLDY    61  57  86 SE6       29.75S
$$

WIZ056-057-062-063-064-067-068-260500-
SOUTH CENTRAL WISCONSIN

CITY           SKY/WX    TMP DP  RH WIND       PRES   REMARKS
REEDSBURG      PTCLDY    58  55  87 E3        29.74S
BARABOO/DELLS  PTCLDY    56  51  84 SE3       29.75S
LONE ROCK      CLEAR     56  53  90 E6        29.74S
MINERAL POINT  CLEAR     61  55  82 SE5       29.75F
MADISON        PTCLDY    55  51  86 CALM      29.76R
MIDDLETON      CLEAR     56  56  99 CALM      29.77R
WATERTOWN      CLEAR     55  54  99 CALM      29.77R
MONROE         CLOUDY    61  52  72 S5        29.77R
JANESVILLE     CLEAR     55  55 100 CALM      29.76R
$$

WIZ051-052-058>065-066-070>072-260500-
SOUTHEAST WISCONSIN

CITY           SKY/WX    TMP DP  RH WIND       PRES   REMARKS
MILWAUKEE      CLEAR     55  51  86 CALM      29.76R
WAUKESHA       CLEAR     50  48  93 CALM      29.78R
MILWAUKEE/TIMM   N/A     52  46  82 CALM      29.77S
RACINE         CLEAR     53  49  86 N6        29.78R
KENOSHA        CLEAR     52  49  89 CALM      29.77R
FOND DU LAC    CLEAR     55  50  83 S5        29.76R
SHEBOYGAN      CLEAR     51  50  96 N5        29.77R
WEST BEND        N/A     52  52 100 CALM      29.77R FOG
JUNEAU         CLEAR     57  53  88 CALM      29.77R
$$

LSZ147-162-260500-
LAKE SUPERIOR

STATION/POSITION TIME  TEMP    WIND        PRES    WAVE
                       AIR SEA DIR/SP/G            HT/PER
                 (UTC) (F)     (DEG/KT/KT) (MB)    (FT/S)
$$

LMZ867-665-643>646-260500-
LAKE MICHIGAN

STATION/POSITION TIME  TEMP    WIND        PRES    WAVE
                       AIR SEA DIR/SP/G            HT/PER
                 (UTC) (F)     (DEG/KT/KT) (MB)    (FT/S)
$$

TC  - TEMPERATURE IN CELSIUS
VSB - VISIBILITY IN STATUTE MILES
WCI - WIND CHILL INDEX
HX  - HEAT INDEX





USA.gov is the U.S. government's official web portal to all federal, state and local government web resources and services.